Weather History for Kolkata, India

Change the Weather History Date:

Monday, August 26, 2013

  Actual Average Record
Temperature  
Mean Temperature 86 °F -  
Max Temperature 96 °F 88 °F 98 °F (2003)
Min Temperature 77 °F 78 °F 77 °F (2013)
Cooling Degree Days 22    
Growing Degree Days 36 (Base 50)    
Moisture  
Dew Point 79 °F    
Average Humidity 85    
Maximum Humidity 96    
Minimum Humidity 57    
Precipitation  
Precipitation 1.18 in - - ()
Sea Level Pressure  
Sea Level Pressure 29.51 in    
Wind  
Wind Speed 2 mph ()    
Max Wind Speed 12 mph    
Max Gust Speed -    
Visibility 1.7 miles    
Events Rain , Thunderstorm    
Averages and records for this station are not official NWS values.
T = Trace of Precipitation, MM = Missing Value Source: Averaged Metar Reports

Daily Weather History Graph

Daily Weather History Graph

Search for Another Location

Airport:

Trip Planner

Search our weather history database for the weather conditions in past years. The results will help you decide how hot, cold, wet, or windy it might be!

Date:

Astronomy

Aug. 26, 2013 Rise Set
Actual Time 5:16 AM IST 5:58 PM IST
Civil Twilight 4:53 AM IST 6:21 PM IST
Nautical Twilight 4:26 AM IST 6:48 PM IST
Astronomical Twilight 3:59 AM IST 7:16 PM IST
Moon 9:36 PM IST (8/26) 10:04 AM IST (8/26)
Length of Visible Light 13h 28m
Length of Day
12h 42m
Waning Gibbous, 70% of the Moon is Illuminated
Aug 26
Waning Gibbous
Aug 28
Last Quarter
Sep 5
New
Sep 12
First Quarter
Sep 19
Full

Hourly Weather History & Observations

Time (IST) Temp. Heat Index Dew Point Humidity Pressure Visibility Wind Dir Wind Speed Gust Speed Precip Events Conditions
12:20 AM 84.2 °F 98.3 °F 80.6 °F 89% 29.53 in - South 3.5 mph - N/A   Haze
12:50 AM 84.2 °F 98.3 °F 80.6 °F 89% 29.53 in - South 3.5 mph - N/A   Haze
1:20 AM 84.2 °F 98.3 °F 80.6 °F 89% 29.50 in - Calm Calm - N/A   Haze
1:50 AM 84.2 °F 98.3 °F 80.6 °F 89% 29.50 in - Calm Calm - N/A   Haze
2:20 AM 84.2 °F 98.3 °F 80.6 °F 89% 29.50 in - Calm Calm - N/A   Haze
2:50 AM 82.4 °F 94.0 °F 80.6 °F 94% 29.50 in - Calm Calm - N/A   Haze
3:20 AM 84.2 °F 98.3 °F 80.6 °F 89% 29.50 in - Calm Calm - N/A   Haze
4:20 AM 84.2 °F 98.3 °F 80.6 °F 89% 29.50 in 1.7 mi Calm Calm - N/A   Haze
4:50 AM 84.2 °F 96.1 °F 78.8 °F 84% 29.50 in 1.7 mi Calm Calm - N/A   Haze
5:20 AM 82.4 °F 92.4 °F 78.8 °F 89% 29.50 in 1.6 mi Calm Calm - N/A   Haze
5:30 AM 82 °F - 80 °F 92% 29.53 in 1 mi Calm Calm - -   Haze
5:50 AM 82.4 °F 92.4 °F 78.8 °F 89% 29.50 in 1.6 mi Calm Calm - N/A   Haze
6:20 AM 84.2 °F 96.1 °F 78.8 °F 84% 29.53 in 1.6 mi Calm Calm - N/A   Haze
6:50 AM 84.2 °F 96.1 °F 78.8 °F 84% 29.53 in 1.7 mi West 3.5 mph - N/A   Haze
7:20 AM 84.2 °F 96.1 °F 78.8 °F 84% 29.53 in 1.7 mi West 5.8 mph - N/A   Haze
7:50 AM 86.0 °F 101.9 °F 80.6 °F 84% 29.53 in 1.7 mi West 5.8 mph - N/A   Haze
8:20 AM 87.8 °F 108.2 °F 82.4 °F 84% 29.56 in 1.7 mi WNW 5.8 mph - N/A   Haze
8:30 AM 90 °F - 81 °F 69% 29.57 in 1 mi NNW 2.3 mph - -   Haze
9:20 AM 89.6 °F 108.2 °F 80.6 °F 75% 29.56 in - West 5.8 mph - N/A   Haze
9:50 AM 91.4 °F 111.0 °F 80.6 °F 71% 29.56 in 2.5 mi West 6.9 mph - N/A   Haze
10:20 AM 91.4 °F 111.0 °F 80.6 °F 71% 29.56 in 2.5 mi WNW 4.6 mph - N/A   Haze
10:50 AM 91.4 °F 111.0 °F 80.6 °F 71% 29.53 in 2.5 mi NW 3.5 mph - N/A   Haze
11:20 AM 93.2 °F 113.6 °F 80.6 °F 67% 29.53 in 2.5 mi NNW 4.6 mph - N/A   Haze
11:30 AM 95 °F - 81 °F 57% 29.53 in 1 mi Calm Calm - -   Haze
11:50 AM 95.0 °F 115.8 °F 80.6 °F 63% 29.50 in 2.5 mi West 6.9 mph - N/A   Haze
12:20 PM 93.2 °F 113.6 °F 80.6 °F 67% 29.47 in 2.5 mi WNW 6.9 mph - N/A   Haze
12:50 PM 93.2 °F 113.6 °F 80.6 °F 67% 29.47 in 2.5 mi NW 5.8 mph - N/A   Haze
1:20 PM 93.2 °F 113.6 °F 80.6 °F 67% 29.44 in - WNW 3.5 mph - N/A   Haze
2:20 PM 89.6 °F 104.7 °F 78.8 °F 70% 29.44 in 1.6 mi NE 5.8 mph - N/A Rain , Thunderstorm Light Thunderstorms and Rain
2:30 PM 92 °F - 79 °F 59% 29.50 in 1 mi NW 4.6 mph - - Thunderstorm Thunderstorm
3:20 PM 78.8 °F - 77.0 °F 94% 29.50 in 0.9 mi South 11.5 mph - N/A Rain , Thunderstorm Light Thunderstorms and Rain
3:50 PM 77.0 °F - 75.2 °F 94% 29.47 in 1.6 mi SW 6.9 mph - N/A Rain , Thunderstorm Light Thunderstorms and Rain
4:20 PM 78.8 °F - 77.0 °F 94% 29.47 in 1.6 mi WSW 5.8 mph - N/A Rain , Thunderstorm Light Thunderstorms and Rain
5:20 PM 78.8 °F - 77.0 °F 94% 29.50 in 1.9 mi West 3.5 mph - N/A Rain Light Rain
5:30 PM 80 °F - 79 °F 95% 29.52 in 1 mi East 3.5 mph - - Rain , Thunderstorm Thunderstorms and Rain
5:50 PM 78.8 °F - 77.0 °F 94% 29.47 in 1.9 mi SSW 4.6 mph - N/A Rain Light Rain
6:20 PM 78.8 °F - 77.0 °F 94% 29.47 in 1.9 mi South 6.9 mph - N/A Rain Light Rain
6:50 PM 78.8 °F - 77.0 °F 94% 29.47 in 1.9 mi South 3.5 mph - N/A Rain Light Rain
7:20 PM 78.8 °F - 77.0 °F 94% 29.50 in 1.9 mi Calm Calm - N/A   Haze
7:50 PM 78.8 °F - 77.0 °F 94% 29.50 in 1.9 mi Calm Calm - N/A   Haze
8:20 PM 78.8 °F - 77.0 °F 94% 29.53 in 1.9 mi Calm Calm - N/A   Haze
8:30 PM 82 °F - 80 °F 93% 29.54 in 1 mi East 2.3 mph - -   Haze
8:50 PM 80.6 °F 88.1 °F 78.8 °F 94% 29.53 in 1.9 mi Calm Calm - N/A   Haze
9:20 PM 80.6 °F 88.1 °F 78.8 °F 94% 29.53 in 1.9 mi Calm Calm - N/A   Haze
9:50 PM 80.6 °F 88.1 °F 78.8 °F 94% 29.53 in 1.9 mi Calm Calm - N/A   Haze
10:20 PM 80.6 °F 88.1 °F 78.8 °F 94% 29.53 in 1.9 mi Calm Calm - N/A   Haze
10:50 PM 80.6 °F 88.1 °F 78.8 °F 94% 29.53 in 1.9 mi Calm Calm - N/A   Haze
11:20 PM 80.6 °F 88.1 °F 78.8 °F 94% 29.53 in 1.7 mi Calm Calm - N/A   Haze
11:30 PM 82 °F - 81 °F 96% 29.57 in 1 mi Calm Calm - -   Haze
11:50 PM 80.6 °F 88.1 °F 78.8 °F 94% 29.50 in 1.7 mi Calm Calm - N/A   Haze